Regional Weather Roundup
Issued by NWS

Home | Current Version | Previous Version | Graphics & Text | Print | Product List | Glossary On
Versions: 1 2 3 4 5 6 7 8 9 10 11 12 13 14 15 16 17 18 19 20 21 22 23 24 25 26 27 28 29 30 31 32 33 34 35 36 37 38 39 40 41 42 43 44 45 46 47 48 49 50
808
ASUS45 KCYS 221210
RWRWY

WYOMING REGIONAL WEATHER ROUNDUP
NATIONAL WEATHER SERVICE CHEYENNE WY
600 AM MDT TUE MAY 22 2018

NOTE:  "FAIR" INDICATES FEW OR NO CLOUDS BELOW 12,000 FEET
WITH NO SIGNIFICANT WEATHER AND/OR OBSTRUCTIONS TO VISIBILITY.

WYZ001-221300-
YELLOWSTONE NATIONAL PARK

CITY           SKY/WX    TMP DP  RH WIND       PRES   REMARKS
LK YELLOWSTONE   N/A     29  28  96 CALM      30.15S
6HR MIN TEMP:  29; 6HR MAX TEMP:  37;

W YELLOWSTONE  NOT AVBL

$$
WYZ002>013-054>058-071-098>099-221300-
NORTHERN WYOMING

CITY           SKY/WX    TMP DP  RH WIND       PRES   REMARKS
JACKSON        FAIR      36  34  92 NE5       30.08S WCI  32
CODY           FAIR      48  41  76 SW5       30.05R
GREYBULL       FAIR      47  45  93 CALM      29.98R
6HR MIN TEMP:  47; 6HR MAX TEMP:  57;

WORLAND        FAIR      45  45 100 S6        29.99R
6HR MIN TEMP:  45; 6HR MAX TEMP:  54;

SHERIDAN       FAIR      44  43  96 W6        29.98R
6HR MIN TEMP:  44; 6HR MAX TEMP:  56; 6HR PCP: TRACE;

BUFFALO        FAIR      50  42  74 CALM      30.02R
6HR MIN TEMP:  47; 6HR MAX TEMP:  57;

GILLETTE       FAIR      45  44  97 SW5       30.00R
6HR MIN TEMP:  44; 6HR MAX TEMP:  63;

NEWCASTLE      FAIR      48  41  76 NE3       30.00R

$$
WYZ014>020-022>026-101>103-221300-
CENTRAL WYOMING

CITY           SKY/WX    TMP DP  RH WIND       PRES   REMARKS
BIG PINEY      FAIR      39  36  89 N8        30.06F WCI  33
6HR MIN TEMP:  36; 6HR MAX TEMP:  46;

PINEDALE       FAIR      34  34 100 NW7       30.08R WCI  28
DUBOIS         FAIR      36  32  87 W10       30.10S WCI  28
LANDER         FAIR      47  40  76 S5        30.01S
6HR MIN TEMP:  46; 6HR MAX TEMP:  53;

RIVERTON       FAIR      47  44  90 NW6       30.01S
6HR MIN TEMP:  47; 6HR MAX TEMP:  56;

CASPER         FAIR      43  43 100 NW5       30.02R
6HR MIN TEMP:  41; 6HR MAX TEMP:  55;

DOUGLAS        FAIR      47  45  93 CALM      30.01R
6HR MIN TEMP:  42; 6HR MAX TEMP:  58;


$$
WYZ021-027>030-104>119-221300-
SOUTHERN WYOMING

CITY           SKY/WX    TMP DP  RH WIND       PRES   REMARKS
EVANSTON       FAIR      46  39  76 CALM      30.02S
6HR MIN TEMP:  45; 6HR MAX TEMP:  52;

KEMMERER       FAIR      45  34  65 N13       30.03F
FORT BRIDGER   FAIR      43  37  80 SW6       30.06S
ROCK SPRINGS   FAIR      48  39  71 E9        30.02S
6HR MIN TEMP:  47; 6HR MAX TEMP:  52;

DIXON          FAIR      48  30  49 E7        30.02S
RAWLINS        FAIR      47  42  83 NE7       30.03S
6HR MIN TEMP:  45; 6HR MAX TEMP:  55;

SARATOGA       FAIR      43  36  75 CALM      30.04S
LARAMIE        FAIR      44  42  93 S10       30.08R
6HR MIN TEMP:  42; 6HR MAX TEMP:  50;

CHEYENNE       FAIR      46  44  93 W8        30.03F
6HR MIN TEMP:  46; 6HR MAX TEMP:  53;

TORRINGTON     FAIR      50  50 100 NW6       29.97R
6HR MIN TEMP:  49; 6HR MAX TEMP:  57;

PINE BLUFFS    FAIR      45  45 100 NW3       29.99F

$$




USA.gov is the U.S. government's official web portal to all federal, state and local government web resources and services.